Regional Weather Roundup
Issued by NWS Little Rock, AR

Home | Current Version | Previous Version | Graphics & Text | Print | Product List | Glossary On
Versions: 1 2 3 4 5 6 7 8 9 10 11 12 13 14 15 16 17 18 19 20 21 22 23 24 25 26 27 28 29 30 31 32
000
ASUS44 KLZK 180705
RWRLZK

WEATHER ROUNDUP FOR ARKANSAS
NATIONAL WEATHER SERVICE LITTLE ROCK AR
100 AM CST WED JAN 18 2017

NOTE: "FAIR" INDICATES FEW OR NO CLOUDS BELOW 12,000 FEET WITH NO
SIGNIFICANT WEATHER AND/OR OBSTRUCTIONS TO VISIBILITY.

ARZ001-003-010-029-180800-
NORTHWEST ARKANSAS

CITY           SKY/WX    TMP DP  RH WIND       PRES   REMARKS
FAYETTEVILLE   PTCLDY    38  37  97 CALM      30.16F
FORT SMITH     CLOUDY    43  38  82 CALM      30.17F
HARRISON       CLOUDY    39  37  92 NW5       30.17F
BENTONVILLE    CLOUDY   N/A N/A N/A E3        30.15F
ROGERS         CLOUDY    38  36  92 NE3       30.16F
SILOAM SPGS    PTCLDY    37  36  93 CALM      30.15F
HIGHFILL       CLOUDY    39  36  89 E3        30.15F
$$

ARZ004-005-016-180800-
NORTH CENTRAL ARKANSAS

CITY           SKY/WX    TMP DP  RH WIND       PRES   REMARKS
BATESVILLE     CLOUDY    39  36  87 CALM      30.22R
FLIPPIN        CLOUDY    41  34  75 W3        30.18R
MTN HOME       CLOUDY    39  36  89 VRB3      30.19S
$$

ARZ040-041-180800-
WEST CENTRAL ARKANSAS

CITY           SKY/WX    TMP DP  RH WIND       PRES   REMARKS
MENA           CLOUDY    46  45  93 CALM      30.17S
MOUNT IDA      CLOUDY    45  40  82 CALM      30.13F
$$

ARZ009-017-025-026-028-180800-
NORTHEAST ARKANSAS

CITY           SKY/WX    TMP DP  RH WIND       PRES   REMARKS
CORNING        CLOUDY    41  39  93 N3        30.18F
JONESBORO      PTCLDY    42  39  89 W5        30.21R
WALNUT RIDGE   MOCLDY    39  34  81 W5        30.20R
BLYTHEVILLE    PTCLDY    42  39  89 CALM      30.19S
$$

ARZ022-023-033-042-044-180800-
CENTRAL ARKANSAS

CITY           SKY/WX    TMP DP  RH WIND       PRES   REMARKS
LITTLE ROCK    LGT RAIN  45  42  89 NW5       30.20F
N LITTLE ROCK    N/A     44  40  87 N3        30.21F
JACKSONVILLE   PTCLDY    46  42  87 CALM      30.19F
SEARCY         CLOUDY    42  40  92 N6        30.22S
HOT SPRINGS    LGT RAIN  48  45  89 CALM      30.17F
RUSSELLVILLE   CLOUDY    42  39  89 CALM      30.20S
CLINTON        FAIR      39  39 100 CALM      30.19F
$$

ARZ036-180800-
EAST ARKANSAS

CITY           SKY/WX    TMP DP  RH WIND       PRES   REMARKS
WEST MEMPHIS   CLOUDY    45  42  89 N5        30.18R
$$

ARZ050-053-066-070-073-180800-
SOUTHWEST ARKANSAS

CITY           SKY/WX    TMP DP  RH WIND       PRES   REMARKS
ARKADELPHIA    LGT RAIN  50  48  93 N5        30.19F
CAMDEN         RAIN      50  48  93 N6        30.17F
TEXARKANA      RAIN      48  48 100 E8        30.14F
EL DORADO      CLOUDY    52  52 100 NE5       30.15F
DE QUEEN       CLOUDY    48  48 100 W9        30.18R
$$

ARZ056-057-069-180800-
SOUTHEAST ARKANSAS

CITY           SKY/WX    TMP DP  RH WIND       PRES   REMARKS
PINE BLUFF     LGT RAIN  49  44  83 N8        30.19F
STUTTGART      CLOUDY    48  39  71 NW5       30.21F
MONTICELLO     CLOUDY    53  51  93 N5        30.17R

$$






USA.gov is the U.S. government's official web portal to all federal, state and local government web resources and services.